Time,TemperatureF,DewpointF,PressureIn,WindDirection,WindDirectionDegrees,WindSpeedMPH,WindSpeedGustMPH,Humidity,HourlyPrecipIn,Conditions,Clouds,dailyrainin,SoftwareType,DateUTC
2013-08-28 00:01:00,69.8,66.7,29.98,NW,320,0.0,0.0,90,0.00,RA,,0.00,WeatherDisplay:10.37,2013-08-28 04:01:00,
2013-08-28 00:02:00,69.8,66.7,29.98,NW,320,0.0,0.0,90,0.00,RA,,0.00,WeatherDisplay:10.37,2013-08-28 04:02:00,
2013-08-28 00:07:00,69.8,66.7,29.95,NW,320,0.0,0.0,90,0.00,RA,,0.00,WeatherDisplay:10.37,2013-08-28 04:07:00,
2013-08-28 00:12:00,69.8,66.7,29.95,NW,320,0.0,0.0,90,0.00,SCT,,0.00,WeatherDisplay:10.37,2013-08-28 04:12:00,
2013-08-28 00:15:00,69.8,66.7,29.95,NW,320,0.0,0.0,90,0.00,SCT,,0.00,WeatherDisplay:10.37,2013-08-28 04:15:00,
2013-08-28 00:20:00,69.8,66.4,29.95,NW,320,0.0,0.0,89,0.00,FEW,,0.00,WeatherDisplay:10.37,2013-08-28 04:20:00,
2013-08-28 00:25:00,69.8,66.4,29.95,NW,320,0.0,0.0,89,0.00,FEW,,0.00,WeatherDisplay:10.37,2013-08-28 04:25:00,
2013-08-28 00:30:00,68.5,65.2,29.95,NW,320,0.0,0.0,89,0.00,FEW,,0.00,WeatherDisplay:10.37,2013-08-28 04:30:00,
2013-08-28 00:35:00,68.4,65.0,30.18,NW,320,0.0,0.0,89,0.00,FEW,,0.00,WeatherDisplay:10.37,2013-08-28 04:35:00,
2013-08-28 00:40:00,68.4,65.0,30.18,NW,320,0.0,0.0,89,0.00,FEW,,0.00,WeatherDisplay:10.37,2013-08-28 04:40:00,
2013-08-28 00:45:00,68.2,64.8,30.18,NW,320,0.0,0.0,89,0.00,FEW,,0.00,WeatherDisplay:10.37,2013-08-28 04:45:00,
2013-08-28 00:50:00,68.2,64.8,30.77,NW,320,0.0,0.0,89,0.00,FEW,,0.00,WeatherDisplay:10.37,2013-08-28 04:50:00,
2013-08-28 00:55:00,68.2,64.8,30.77,NW,320,0.0,0.0,89,0.00,FEW,,0.00,WeatherDisplay:10.37,2013-08-28 04:55:00,
2013-08-28 01:00:00,68.0,64.6,30.77,NW,320,0.0,0.0,89,0.00,FEW,,0.00,WeatherDisplay:10.37,2013-08-28 05:00:00,
2013-08-28 01:05:00,68.0,64.6,30.83,NW,320,0.0,0.0,89,0.00,CLR,,0.00,WeatherDisplay:10.37,2013-08-28 05:05:00,
2013-08-28 01:10:00,68.0,64.6,30.83,NW,320,0.0,0.0,89,0.00,CLR,,0.00,WeatherDisplay:10.37,2013-08-28 05:10:00,
2013-08-28 01:15:00,68.0,64.6,30.83,NW,320,0.0,0.0,89,0.00,CLR,,0.00,WeatherDisplay:10.37,2013-08-28 05:15:00,
2013-08-28 01:20:00,68.0,64.6,30.71,NW,320,0.0,0.0,89,0.00,CLR,,0.00,WeatherDisplay:10.37,2013-08-28 05:20:00,
2013-08-28 01:25:00,67.8,64.5,30.71,NW,320,0.0,0.0,89,0.00,CLR,,0.00,WeatherDisplay:10.37,2013-08-28 05:25:00,
2013-08-28 01:30:00,67.6,64.3,30.71,NW,320,0.0,0.0,89,0.00,CLR,,0.00,WeatherDisplay:10.37,2013-08-28 05:30:00,
2013-08-28 01:35:00,67.6,64.3,30.51,NW,320,0.0,0.0,89,0.00,CLR,,0.00,WeatherDisplay:10.37,2013-08-28 05:35:00,
2013-08-28 01:40:00,67.6,64.3,30.51,NW,320,0.0,0.0,89,0.00,CLR,,0.00,WeatherDisplay:10.37,2013-08-28 05:40:00,
2013-08-28 01:45:00,67.5,64.1,30.51,NW,320,0.0,0.0,89,0.00,CLR,,0.00,WeatherDisplay:10.37,2013-08-28 05:45:00,
2013-08-28 01:50:00,67.5,64.1,30.62,NW,320,0.0,0.0,89,0.00,CLR,,0.00,WeatherDisplay:10.37,2013-08-28 05:50:00,
2013-08-28 01:55:00,67.5,64.1,30.62,NW,320,0.0,0.0,89,0.00,CLR,,0.00,WeatherDisplay:10.37,2013-08-28 05:55:00,
2013-08-28 02:00:00,67.3,63.9,30.62,NW,320,0.0,0.0,89,0.00,CLR,,0.00,WeatherDisplay:10.37,2013-08-28 06:00:00,
2013-08-28 02:05:00,67.3,63.9,30.57,NW,320,0.0,0.0,89,0.00,FEW,,0.00,WeatherDisplay:10.37,2013-08-28 06:05:00,
2013-08-28 02:10:00,67.5,64.1,30.57,NW,320,0.0,0.0,89,0.00,FEW,,0.00,WeatherDisplay:10.37,2013-08-28 06:10:00,
2013-08-28 02:15:00,67.5,64.1,30.57,NW,320,0.0,0.0,89,0.00,FEW,,0.00,WeatherDisplay:10.37,2013-08-28 06:15:00,
2013-08-28 02:20:00,67.5,64.1,30.54,NW,320,0.0,0.0,89,0.00,FEW,,0.00,WeatherDisplay:10.37,2013-08-28 06:20:00,
2013-08-28 02:25:00,67.1,63.7,30.54,NW,320,0.0,0.0,89,0.00,FEW,,0.00,WeatherDisplay:10.37,2013-08-28 06:25:00,
2013-08-28 02:30:00,67.3,63.9,30.54,NW,320,0.0,0.0,89,0.00,FEW,,0.00,WeatherDisplay:10.37,2013-08-28 06:30:00,
2013-08-28 02:35:00,67.3,63.9,30.59,NW,320,0.0,0.0,89,0.00,FEW,,0.00,WeatherDisplay:10.37,2013-08-28 06:35:00,
2013-08-28 02:40:00,67.3,63.9,30.59,NW,320,0.0,0.0,89,0.00,FEW,,0.00,WeatherDisplay:10.37,2013-08-28 06:40:00,
2013-08-28 02:45:00,67.1,63.7,30.59,NW,320,0.0,0.0,89,0.00,FEW,,0.00,WeatherDisplay:10.37,2013-08-28 06:45:00,
2013-08-28 02:50:00,67.1,63.7,30.48,NW,320,0.0,0.0,89,0.00,FEW,,0.00,WeatherDisplay:10.37,2013-08-28 06:50:00,
2013-08-28 02:55:00,67.1,63.7,30.48,NW,320,0.0,0.0,89,0.00,FEW,,0.00,WeatherDisplay:10.37,2013-08-28 06:55:00,
2013-08-28 03:00:00,67.1,63.7,30.48,NW,320,0.0,0.0,89,0.00,FEW,,0.00,WeatherDisplay:10.37,2013-08-28 07:00:00,
2013-08-28 03:05:00,66.7,64.7,30.57,NW,320,0.0,0.0,93,0.00,FEW,,0.00,WeatherDisplay:10.37,2013-08-28 07:05:00,
2013-08-28 03:10:00,66.7,64.7,30.57,NW,320,0.0,0.0,93,0.00,FEW,,0.00,WeatherDisplay:10.37,2013-08-28 07:10:00,
2013-08-28 03:15:00,66.7,64.7,30.57,NW,320,0.0,0.0,93,0.00,FEW,,0.00,WeatherDisplay:10.37,2013-08-28 07:15:00,
2013-08-28 03:20:00,66.6,64.5,30.54,NW,320,0.0,0.0,93,0.00,FEW,,0.00,WeatherDisplay:10.37,2013-08-28 07:20:00,
2013-08-28 03:25:00,66.4,64.3,30.54,NW,320,0.0,0.0,93,0.00,FEW,,0.00,WeatherDisplay:10.37,2013-08-28 07:25:00,
2013-08-28 03:30:00,66.4,64.3,30.54,NW,320,0.0,0.0,93,0.00,FEW,,0.00,WeatherDisplay:10.37,2013-08-28 07:30:00,
2013-08-28 03:35:00,66.4,64.3,30.48,NW,320,0.0,0.0,93,0.00,FEW,,0.00,WeatherDisplay:10.37,2013-08-28 07:35:00,
2013-08-28 03:40:00,66.2,64.1,30.48,NW,320,0.0,0.0,93,0.00,FEW,,0.00,WeatherDisplay:10.37,2013-08-28 07:40:00,
2013-08-28 03:45:00,66.2,64.1,30.48,NW,320,0.0,0.0,93,0.00,FEW,,0.00,WeatherDisplay:10.37,2013-08-28 07:45:00,
2013-08-28 03:50:00,66.6,64.5,30.59,NW,320,0.0,0.0,93,0.00,FEW,,0.00,WeatherDisplay:10.37,2013-08-28 07:50:00,
2013-08-28 03:55:00,66.4,64.3,30.59,NW,320,0.0,0.0,93,0.00,FEW,,0.00,WeatherDisplay:10.37,2013-08-28 07:55:00,
2013-08-28 04:00:00,66.4,64.3,30.59,NW,320,0.0,0.0,93,0.00,FEW,,0.00,WeatherDisplay:10.37,2013-08-28 08:00:00,
2013-08-28 04:05:00,66.6,64.5,30.48,NW,320,0.0,0.0,93,0.00,SCT,,0.00,WeatherDisplay:10.37,2013-08-28 08:05:00,
2013-08-28 04:10:00,66.6,64.5,30.48,NW,320,0.0,0.0,93,0.00,SCT,,0.00,WeatherDisplay:10.37,2013-08-28 08:10:00,
2013-08-28 04:15:00,66.4,64.3,30.48,NW,320,0.0,0.0,93,0.00,SCT,,0.00,WeatherDisplay:10.37,2013-08-28 08:15:00,
2013-08-28 04:20:00,66.4,64.3,30.57,NW,320,0.0,0.0,93,0.00,SCT,,0.00,WeatherDisplay:10.37,2013-08-28 08:20:00,
2013-08-28 04:25:00,66.4,64.3,30.57,NW,320,0.0,0.0,93,0.00,SCT,,0.00,WeatherDisplay:10.37,2013-08-28 08:25:00,
2013-08-28 04:30:00,66.4,64.3,30.57,NW,320,0.0,0.0,93,0.00,SCT,,0.00,WeatherDisplay:10.37,2013-08-28 08:30:00,
2013-08-28 04:35:00,66.6,64.5,30.57,NW,320,0.0,0.0,93,0.00,SCT,,0.00,WeatherDisplay:10.37,2013-08-28 08:35:00,
2013-08-28 04:40:00,66.6,64.5,30.57,NW,320,0.0,0.0,93,0.00,SCT,,0.00,WeatherDisplay:10.37,2013-08-28 08:40:00,
2013-08-28 04:45:00,66.4,64.3,30.57,NW,320,0.0,0.0,93,0.00,SCT,,0.00,WeatherDisplay:10.37,2013-08-28 08:45:00,
2013-08-28 04:50:00,66.4,64.3,30.48,NW,320,0.0,0.0,93,0.00,SCT,,0.00,WeatherDisplay:10.37,2013-08-28 08:50:00,
2013-08-28 04:55:00,66.4,64.3,30.48,NW,320,0.0,0.0,93,0.00,SCT,,0.00,WeatherDisplay:10.37,2013-08-28 08:55:00,
2013-08-28 05:00:00,66.4,64.3,30.48,NW,320,0.0,0.0,93,0.00,FEW,,0.00,WeatherDisplay:10.37,2013-08-28 09:00:00,
2013-08-28 05:05:00,66.2,64.1,30.62,NW,320,0.0,0.0,93,0.00,FEW,,0.00,WeatherDisplay:10.37,2013-08-28 09:05:00,
2013-08-28 05:10:00,66.2,64.1,30.62,NW,320,0.0,0.0,93,0.00,FEW,,0.00,WeatherDisplay:10.37,2013-08-28 09:10:00,
2013-08-28 05:15:00,66.4,64.3,30.62,NW,320,0.0,0.0,93,0.00,FEW,,0.00,WeatherDisplay:10.37,2013-08-28 09:15:00,
2013-08-28 05:20:00,66.4,64.3,30.51,NW,320,0.0,0.0,93,0.00,FEW,,0.00,WeatherDisplay:10.37,2013-08-28 09:20:00,
2013-08-28 05:25:00,66.2,64.1,30.51,NW,320,0.0,0.0,93,0.00,FEW,,0.00,WeatherDisplay:10.37,2013-08-28 09:25:00,
2013-08-28 05:30:00,66.2,64.1,30.51,NW,320,0.0,0.0,93,0.00,FEW,,0.00,WeatherDisplay:10.37,2013-08-28 09:30:00,
2013-08-28 05:35:00,66.2,64.1,30.54,NW,320,0.0,0.0,93,0.00,FEW,,0.00,WeatherDisplay:10.37,2013-08-28 09:35:00,
2013-08-28 05:40:00,66.2,64.1,30.54,NW,320,0.0,0.0,93,0.00,FEW,,0.00,WeatherDisplay:10.37,2013-08-28 09:40:00,
2013-08-28 05:45:00,66.4,64.3,30.54,NW,320,0.0,0.0,93,0.00,FEW,,0.00,WeatherDisplay:10.37,2013-08-28 09:45:00,
2013-08-28 05:50:00,66.4,64.3,30.57,NW,320,0.0,0.0,93,0.00,SCT,,0.00,WeatherDisplay:10.37,2013-08-28 09:50:00,
2013-08-28 05:55:00,66.4,64.3,30.57,NW,320,0.0,0.0,93,0.00,SCT,,0.00,WeatherDisplay:10.37,2013-08-28 09:55:00,
2013-08-28 06:00:00,66.4,64.3,30.57,NW,320,0.0,0.0,93,0.00,SCT,,0.00,WeatherDisplay:10.37,2013-08-28 10:00:00,
2013-08-28 06:05:00,66.4,66.4,30.48,NW,320,0.0,0.0,100,0.00,OVC,,0.00,WeatherDisplay:10.37,2013-08-28 10:05:00,
2013-08-28 06:10:00,66.4,66.4,30.48,NW,320,0.0,0.0,100,0.00,OVC,,0.00,WeatherDisplay:10.37,2013-08-28 10:10:00,
2013-08-28 06:15:00,66.4,64.3,30.48,NW,320,0.0,0.0,93,0.00,BKN,,0.00,WeatherDisplay:10.37,2013-08-28 10:15:00,
2013-08-28 06:20:00,66.0,63.9,30.59,NW,320,0.0,0.0,93,0.00,BKN,,0.00,WeatherDisplay:10.37,2013-08-28 10:20:00,
2013-08-28 06:25:00,65.8,63.8,30.59,NW,320,0.0,0.0,93,0.00,BKN,,0.00,WeatherDisplay:10.37,2013-08-28 10:25:00,
2013-08-28 06:30:00,66.0,63.9,30.59,NW,320,0.0,0.0,93,0.00,BKN,,0.00,WeatherDisplay:10.37,2013-08-28 10:30:00,
2013-08-28 06:35:00,65.8,63.8,30.51,NW,320,0.0,0.0,93,0.00,BKN,,0.00,WeatherDisplay:10.37,2013-08-28 10:35:00,
2013-08-28 06:40:00,65.8,63.8,30.51,NW,320,0.0,0.0,93,0.00,BKN,,0.00,WeatherDisplay:10.37,2013-08-28 10:40:00,
2013-08-28 06:45:00,65.8,63.8,30.51,NW,320,0.0,0.0,93,0.00,BKN,,0.00,WeatherDisplay:10.37,2013-08-28 10:45:00,
2013-08-28 06:50:00,66.0,63.9,30.54,NW,320,0.0,0.0,93,0.00,BKN,,0.00,WeatherDisplay:10.37,2013-08-28 10:50:00,
2013-08-28 06:55:00,65.8,63.8,30.54,NW,320,0.0,0.0,93,0.00,BKN,,0.00,WeatherDisplay:10.37,2013-08-28 10:55:00,
2013-08-28 07:00:00,65.8,63.8,30.54,NW,320,0.0,0.0,93,0.00,,,0.00,WeatherDisplay:10.37,2013-08-28 11:00:00,
2013-08-28 07:05:00,66.0,63.9,30.57,NW,320,0.0,0.0,93,0.00,,,0.00,WeatherDisplay:10.37,2013-08-28 11:05:00,
2013-08-28 07:10:00,65.8,63.8,30.57,NW,320,0.0,0.0,93,0.00,,,0.00,WeatherDisplay:10.37,2013-08-28 11:10:00,
2013-08-28 07:15:00,66.0,63.9,30.57,NW,320,0.0,0.0,93,0.00,,,0.00,WeatherDisplay:10.37,2013-08-28 11:15:00,
2013-08-28 07:20:00,66.2,64.1,30.51,NW,320,0.0,0.0,93,0.00,,,0.00,WeatherDisplay:10.37,2013-08-28 11:20:00,
2013-08-28 07:25:00,66.2,64.1,30.51,NW,320,0.0,0.0,93,0.00,,,0.00,WeatherDisplay:10.37,2013-08-28 11:25:00,
2013-08-28 07:30:00,66.0,63.9,30.51,NW,320,0.0,0.0,93,0.00,,,0.00,WeatherDisplay:10.37,2013-08-28 11:30:00,
2013-08-28 07:35:00,66.2,64.1,30.59,NW,320,0.0,0.0,93,0.00,,,0.00,WeatherDisplay:10.37,2013-08-28 11:35:00,
2013-08-28 07:40:00,66.2,64.1,30.59,NW,320,0.0,0.0,93,0.00,,,0.00,WeatherDisplay:10.37,2013-08-28 11:40:00,
2013-08-28 07:45:00,66.0,63.9,30.59,NW,320,0.0,0.0,93,0.00,,,0.00,WeatherDisplay:10.37,2013-08-28 11:45:00,
2013-08-28 07:50:00,65.8,63.8,30.36,NW,320,0.0,0.0,93,0.00,,,0.00,WeatherDisplay:10.37,2013-08-28 11:50:00,
2013-08-28 07:55:00,65.8,63.8,30.36,NW,320,0.0,0.0,93,0.00,,,0.00,WeatherDisplay:10.37,2013-08-28 11:55:00,
2013-08-28 08:00:00,65.8,63.8,30.36,WSW,240,3.5,0.0,93,0.00,,,0.00,WeatherDisplay:10.37,2013-08-28 12:00:00,
2013-08-28 08:05:00,66.4,64.3,30.21,WSW,240,3.5,3.5,93,0.00,,,0.00,WeatherDisplay:10.37,2013-08-28 12:05:00,
2013-08-28 08:10:00,66.4,64.3,30.21,WSW,240,3.5,3.5,93,0.00,,,0.00,WeatherDisplay:10.37,2013-08-28 12:10:00,
2013-08-28 08:15:00,66.4,64.3,30.21,WSW,240,3.5,3.5,93,0.00,OVC,,0.00,WeatherDisplay:10.37,2013-08-28 12:15:00,
2013-08-28 08:20:00,66.4,64.3,30.18,WSW,240,3.5,3.5,93,0.00,OVC,,0.00,WeatherDisplay:10.37,2013-08-28 12:20:00,
2013-08-28 08:25:00,66.6,64.5,30.18,WSW,240,3.5,3.5,93,0.00,OVC,,0.00,WeatherDisplay:10.37,2013-08-28 12:25:00,
2013-08-28 08:30:00,66.7,64.7,30.18,WSW,240,3.5,3.5,93,0.00,OVC,,0.00,WeatherDisplay:10.37,2013-08-28 12:30:00,
2013-08-28 08:35:00,66.9,64.8,30.33,WSW,240,3.5,3.5,93,0.00,OVC,,0.00,WeatherDisplay:10.37,2013-08-28 12:35:00,
2013-08-28 08:40:00,67.1,65.0,30.33,WSW,240,3.5,3.5,93,0.00,OVC,,0.00,WeatherDisplay:10.37,2013-08-28 12:40:00,
2013-08-28 08:45:00,67.1,65.0,30.33,WSW,240,3.5,3.5,93,0.00,OVC,,0.00,WeatherDisplay:10.37,2013-08-28 12:45:00,
2013-08-28 08:50:00,67.3,65.2,30.33,WSW,240,3.5,3.5,93,0.00,OVC,,0.00,WeatherDisplay:10.37,2013-08-28 12:50:00,
2013-08-28 08:55:00,67.5,65.4,30.33,WSW,240,3.5,3.5,93,0.00,OVC,,0.00,WeatherDisplay:10.37,2013-08-28 12:55:00,
2013-08-28 09:00:00,67.6,65.5,30.33,WSW,240,0.0,3.5,93,0.00,OVC,,0.00,WeatherDisplay:10.37,2013-08-28 13:00:00,
2013-08-28 09:05:00,67.6,65.5,30.48,WSW,240,0.0,0.0,93,0.00,OVC,,0.00,WeatherDisplay:10.37,2013-08-28 13:05:00,
2013-08-28 09:10:00,67.6,65.5,30.48,WSW,240,0.0,0.0,93,0.00,OVC,,0.00,WeatherDisplay:10.37,2013-08-28 13:10:00,
2013-08-28 09:15:00,67.6,65.5,30.48,WSW,240,0.0,0.0,93,0.00,OVC,,0.00,WeatherDisplay:10.37,2013-08-28 13:15:00,
2013-08-28 09:20:00,68.5,66.4,30.36,WSW,240,0.0,0.0,93,0.00,OVC,,0.00,WeatherDisplay:10.37,2013-08-28 13:20:00,
2013-08-28 09:25:00,68.5,66.4,30.36,WSW,240,0.0,0.0,93,0.00,OVC,,0.00,WeatherDisplay:10.37,2013-08-28 13:25:00,
2013-08-28 09:30:00,68.5,66.4,30.36,WSW,240,0.0,0.0,93,0.00,OVC,,0.00,WeatherDisplay:10.37,2013-08-28 13:30:00,
2013-08-28 09:35:00,68.5,66.4,30.27,WSW,240,0.0,0.0,93,0.00,OVC,,0.00,WeatherDisplay:10.37,2013-08-28 13:35:00,
2013-08-28 09:40:00,68.5,66.4,30.27,WSW,240,0.0,0.0,93,0.00,OVC,,0.00,WeatherDisplay:10.37,2013-08-28 13:40:00,
2013-08-28 09:45:00,68.5,66.4,30.27,WSW,240,0.0,0.0,93,0.00,OVC,,0.00,WeatherDisplay:10.37,2013-08-28 13:45:00,
2013-08-28 09:50:00,68.5,66.4,30.21,WSW,240,0.0,0.0,93,0.00,OVC,,0.00,WeatherDisplay:10.37,2013-08-28 13:50:00,
2013-08-28 09:55:00,68.5,66.4,30.21,WSW,240,0.0,0.0,93,0.00,OVC,,0.00,WeatherDisplay:10.37,2013-08-28 13:55:00,
2013-08-28 10:00:00,68.5,64.2,30.21,WSW,240,0.0,0.0,86,0.00,OVC,,0.00,WeatherDisplay:10.37,2013-08-28 14:00:00,
2013-08-28 10:05:00,68.5,64.2,30.18,WSW,240,0.0,0.0,86,0.00,OVC,,0.00,WeatherDisplay:10.37,2013-08-28 14:05:00,
2013-08-28 10:10:00,68.5,64.2,30.18,WSW,240,0.0,0.0,86,0.00,OVC,,0.00,WeatherDisplay:10.37,2013-08-28 14:10:00,
2013-08-28 10:15:00,68.5,63.2,30.18,WSW,240,0.0,0.0,83,0.00,BKN,,0.00,WeatherDisplay:10.37,2013-08-28 14:15:00,
2013-08-28 10:20:00,68.5,63.2,30.15,WSW,240,0.0,0.0,83,0.00,BKN,,0.00,WeatherDisplay:10.37,2013-08-28 14:20:00,
2013-08-28 10:25:00,68.5,63.2,30.15,WSW,240,0.0,0.0,83,0.00,BKN,,0.00,WeatherDisplay:10.37,2013-08-28 14:25:00,
2013-08-28 10:30:00,68.5,63.2,30.15,NNW,330,4.6,0.0,83,0.00,SCT,,0.00,WeatherDisplay:10.37,2013-08-28 14:30:00,
2013-08-28 10:35:00,68.5,63.2,30.09,NNW,330,4.6,4.6,83,0.00,SCT,,0.00,WeatherDisplay:10.37,2013-08-28 14:35:00,
2013-08-28 10:40:00,68.5,63.2,30.09,NNW,330,4.6,4.6,83,0.00,SCT,,0.00,WeatherDisplay:10.37,2013-08-28 14:40:00,
2013-08-28 10:45:00,68.5,63.2,30.09,NNW,330,4.6,4.6,83,0.00,SCT,,0.00,WeatherDisplay:10.37,2013-08-28 14:45:00,
2013-08-28 10:50:00,68.5,63.2,30.06,NNW,330,4.6,4.6,83,0.00,SCT,,0.00,WeatherDisplay:10.37,2013-08-28 14:50:00,
2013-08-28 10:55:00,68.5,63.2,30.06,NNW,330,4.6,4.6,83,0.00,SCT,,0.00,WeatherDisplay:10.37,2013-08-28 14:55:00,
2013-08-28 11:00:00,68.5,61.4,30.06,NNW,330,0.0,4.6,78,0.00,FEW,,0.00,WeatherDisplay:10.37,2013-08-28 15:00:00,
2013-08-28 11:05:00,68.5,61.4,30.03,NNW,330,0.0,0.0,78,0.00,FEW,,0.00,WeatherDisplay:10.37,2013-08-28 15:05:00,
2013-08-28 11:10:00,68.5,61.4,30.03,NNW,330,0.0,0.0,78,0.00,FEW,,0.00,WeatherDisplay:10.37,2013-08-28 15:10:00,
2013-08-28 11:15:00,68.5,61.4,30.03,NNW,330,0.0,0.0,78,0.00,FEW,,0.00,WeatherDisplay:10.37,2013-08-28 15:15:00,
2013-08-28 11:20:00,68.5,61.4,30.00,NNW,330,0.0,0.0,78,0.00,FEW,,0.00,WeatherDisplay:10.37,2013-08-28 15:20:00,
2013-08-28 11:25:00,68.5,61.4,30.00,NNW,330,0.0,0.0,78,0.00,FEW,,0.00,WeatherDisplay:10.37,2013-08-28 15:25:00,
2013-08-28 11:30:00,68.5,61.4,30.00,NNW,330,0.0,0.0,78,0.00,FEW,,0.00,WeatherDisplay:10.37,2013-08-28 15:30:00,
2013-08-28 11:35:00,68.5,61.4,29.98,NNW,330,0.0,0.0,78,0.00,FEW,,0.00,WeatherDisplay:10.37,2013-08-28 15:35:00,
2013-08-28 11:40:00,68.5,61.4,29.98,NNW,330,0.0,0.0,78,0.00,FEW,,0.00,WeatherDisplay:10.37,2013-08-28 15:40:00,
2013-08-28 11:45:00,68.5,61.4,29.98,NNW,330,0.0,0.0,78,0.00,FEW,,0.00,WeatherDisplay:10.37,2013-08-28 15:45:00,
2013-08-28 11:50:00,68.5,61.4,29.98,NNW,330,0.0,0.0,78,0.00,FEW,,0.00,WeatherDisplay:10.37,2013-08-28 15:50:00,
2013-08-28 11:55:00,68.5,61.4,29.98,NNW,330,0.0,0.0,78,0.00,FEW,,0.00,WeatherDisplay:10.37,2013-08-28 15:55:00,
2013-08-28 12:00:00,68.5,56.7,29.98,NNW,330,0.0,0.0,66,0.00,FEW,,0.00,WeatherDisplay:10.37,2013-08-28 16:00:00,
2013-08-28 12:05:00,68.5,56.7,29.95,NNW,330,0.0,0.0,66,0.00,FEW,,0.00,WeatherDisplay:10.37,2013-08-28 16:05:00,
2013-08-28 12:10:00,68.5,56.7,29.95,NNW,330,0.0,0.0,66,0.00,FEW,,0.00,WeatherDisplay:10.37,2013-08-28 16:10:00,
2013-08-28 12:15:00,68.5,56.7,29.95,NNW,330,0.0,0.0,66,0.00,FEW,,0.00,WeatherDisplay:10.37,2013-08-28 16:15:00,
2013-08-28 12:20:00,68.5,56.7,29.95,NNW,330,0.0,0.0,66,0.00,FEW,,0.00,WeatherDisplay:10.37,2013-08-28 16:20:00,
2013-08-28 12:25:00,68.5,56.7,29.95,NNW,330,0.0,0.0,66,0.00,FEW,,0.00,WeatherDisplay:10.37,2013-08-28 16:25:00,
2013-08-28 12:30:00,68.5,56.7,29.95,NNW,330,0.0,0.0,66,0.00,FEW,,0.00,WeatherDisplay:10.37,2013-08-28 16:30:00,
2013-08-28 12:35:00,68.5,56.7,29.92,NNW,330,0.0,0.0,66,0.00,FEW,,0.00,WeatherDisplay:10.37,2013-08-28 16:35:00,
2013-08-28 12:40:00,68.5,56.7,29.92,NNW,330,0.0,0.0,66,0.00,FEW,,0.00,WeatherDisplay:10.37,2013-08-28 16:40:00,
2013-08-28 12:45:00,68.5,56.7,29.92,NNW,330,0.0,0.0,66,0.00,FEW,,0.00,WeatherDisplay:10.37,2013-08-28 16:45:00,
2013-08-28 12:50:00,68.5,56.7,29.92,NNW,330,0.0,0.0,66,0.00,FEW,,0.00,WeatherDisplay:10.37,2013-08-28 16:50:00,
2013-08-28 12:55:00,68.5,56.7,29.92,NNW,330,0.0,0.0,66,0.00,FEW,,0.00,WeatherDisplay:10.37,2013-08-28 16:55:00,
2013-08-28 13:00:00,68.5,55.0,29.92,NNW,330,4.6,0.0,62,0.00,FEW,,0.00,WeatherDisplay:10.37,2013-08-28 17:00:00,
2013-08-28 13:05:00,68.5,55.0,29.92,NNW,330,4.6,4.6,62,0.00,FEW,,0.00,WeatherDisplay:10.37,2013-08-28 17:05:00,
2013-08-28 13:10:00,68.5,55.0,29.92,NNW,330,4.6,4.6,62,0.00,FEW,,0.00,WeatherDisplay:10.37,2013-08-28 17:10:00,
2013-08-28 13:15:00,68.5,55.0,29.92,NNW,330,4.6,4.6,62,0.00,FEW,,0.00,WeatherDisplay:10.37,2013-08-28 17:15:00,
2013-08-28 13:20:00,68.5,55.0,29.89,NNW,330,4.6,4.6,62,0.00,FEW,,0.00,WeatherDisplay:10.37,2013-08-28 17:20:00,
2013-08-28 13:25:00,68.5,55.0,29.89,NNW,330,4.6,4.6,62,0.00,FEW,,0.00,WeatherDisplay:10.37,2013-08-28 17:25:00,
2013-08-28 13:30:00,68.5,55.0,29.89,NNW,330,4.6,4.6,62,0.00,FEW,,0.00,WeatherDisplay:10.37,2013-08-28 17:30:00,
2013-08-28 13:35:00,68.5,55.0,29.89,NNW,330,4.6,4.6,62,0.00,FEW,,0.00,WeatherDisplay:10.37,2013-08-28 17:35:00,
2013-08-28 13:40:00,68.5,55.0,29.89,NNW,330,4.6,4.6,62,0.00,FEW,,0.00,WeatherDisplay:10.37,2013-08-28 17:40:00,
2013-08-28 13:45:00,68.5,55.0,29.89,NNW,330,4.6,4.6,62,0.00,FEW,,0.00,WeatherDisplay:10.37,2013-08-28 17:45:00,
2013-08-28 13:50:00,68.5,55.0,29.89,NNW,330,4.6,4.6,62,0.00,FEW,,0.00,WeatherDisplay:10.37,2013-08-28 17:50:00,
2013-08-28 13:55:00,68.5,55.0,29.89,NNW,330,4.6,4.6,62,0.00,FEW,,0.00,WeatherDisplay:10.37,2013-08-28 17:55:00,
2013-08-28 14:00:00,68.5,51.2,29.89,NNW,330,0.0,4.6,54,0.00,SCT,,0.00,WeatherDisplay:10.37,2013-08-28 18:00:00,
2013-08-28 14:05:00,68.5,51.2,29.86,NNW,330,0.0,0.0,54,0.00,SCT,,0.00,WeatherDisplay:10.37,2013-08-28 18:05:00,
2013-08-28 14:10:00,68.5,51.2,29.86,NNW,330,0.0,0.0,54,0.00,SCT,,0.00,WeatherDisplay:10.37,2013-08-28 18:10:00,
2013-08-28 14:15:00,68.5,51.2,29.86,NNW,330,0.0,0.0,54,0.00,SCT,,0.00,WeatherDisplay:10.37,2013-08-28 18:15:00,
2013-08-28 14:20:00,68.5,51.2,29.86,NNW,330,0.0,0.0,54,0.00,SCT,,0.00,WeatherDisplay:10.37,2013-08-28 18:20:00,
2013-08-28 14:25:00,68.5,51.2,29.86,NNW,330,0.0,0.0,54,0.00,SCT,,0.00,WeatherDisplay:10.37,2013-08-28 18:25:00,
2013-08-28 14:30:00,68.5,51.2,29.86,NNW,330,0.0,0.0,54,0.00,SCT,,0.00,WeatherDisplay:10.37,2013-08-28 18:30:00,
2013-08-28 14:35:00,68.5,51.2,29.86,NNW,330,0.0,0.0,54,0.00,SCT,,0.00,WeatherDisplay:10.37,2013-08-28 18:35:00,
2013-08-28 14:40:00,68.5,51.2,29.86,NNW,330,0.0,0.0,54,0.00,SCT,,0.00,WeatherDisplay:10.37,2013-08-28 18:40:00,
2013-08-28 14:45:00,68.5,51.2,29.86,NNW,330,0.0,0.0,54,0.00,SCT,,0.00,WeatherDisplay:10.37,2013-08-28 18:45:00,
2013-08-28 14:50:00,68.5,51.2,29.83,NNW,330,0.0,0.0,54,0.00,SCT,,0.00,WeatherDisplay:10.37,2013-08-28 18:50:00,
2013-08-28 14:55:00,68.5,51.2,29.83,NNW,330,0.0,0.0,54,0.00,SCT,,0.00,WeatherDisplay:10.37,2013-08-28 18:55:00,
2013-08-28 15:01:00,68.5,50.7,29.83,NNW,330,0.0,0.0,53,0.00,SCT,,0.00,WeatherDisplay:10.37,2013-08-28 19:01:00,
2013-08-28 15:06:00,68.5,50.7,29.83,NNW,330,0.0,0.0,53,0.00,SCT,,0.00,WeatherDisplay:10.37,2013-08-28 19:06:00,
2013-08-28 15:11:00,68.5,50.7,29.83,NNW,330,0.0,0.0,53,0.00,SCT,,0.00,WeatherDisplay:10.37,2013-08-28 19:11:00,
2013-08-28 15:16:00,68.5,50.7,29.83,NNW,330,0.0,0.0,53,0.00,SCT,,0.00,WeatherDisplay:10.37,2013-08-28 19:16:00,
2013-08-28 15:21:00,68.5,50.7,29.83,NNW,330,0.0,0.0,53,0.00,SCT,,0.00,WeatherDisplay:10.37,2013-08-28 19:21:00,
2013-08-28 15:26:00,68.5,50.7,29.83,NNW,330,0.0,0.0,53,0.00,SCT,,0.00,WeatherDisplay:10.37,2013-08-28 19:26:00,
2013-08-28 15:31:00,68.5,50.7,29.83,NNW,330,0.0,0.0,53,0.00,SCT,,0.00,WeatherDisplay:10.37,2013-08-28 19:31:00,
2013-08-28 15:36:00,68.5,50.7,29.86,NNW,330,0.0,0.0,53,0.00,SCT,,0.00,WeatherDisplay:10.37,2013-08-28 19:36:00,
2013-08-28 15:41:00,68.5,50.7,29.86,NNW,330,0.0,0.0,53,0.00,SCT,,0.00,WeatherDisplay:10.37,2013-08-28 19:41:00,
2013-08-28 15:46:00,68.5,50.7,29.86,NNW,330,0.0,0.0,53,0.00,SCT,,0.00,WeatherDisplay:10.37,2013-08-28 19:46:00,
2013-08-28 15:51:00,68.5,50.7,29.83,NNW,330,0.0,0.0,53,0.00,SCT,,0.00,WeatherDisplay:10.37,2013-08-28 19:51:00,
2013-08-28 15:56:00,68.5,50.7,29.83,NNW,330,0.0,0.0,53,0.00,SCT,,0.00,WeatherDisplay:10.37,2013-08-28 19:56:00,
2013-08-28 16:01:00,68.5,49.7,29.83,NNW,330,0.0,0.0,51,0.00,SCT,,0.00,WeatherDisplay:10.37,2013-08-28 20:01:00,
2013-08-28 16:06:00,68.5,49.7,29.83,NNW,330,0.0,0.0,51,0.00,SCT,,0.00,WeatherDisplay:10.37,2013-08-28 20:06:00,
2013-08-28 16:11:00,68.5,49.7,29.83,NNW,330,0.0,0.0,51,0.00,SCT,,0.00,WeatherDisplay:10.37,2013-08-28 20:11:00,
2013-08-28 16:16:00,68.5,49.7,29.83,NNW,330,0.0,0.0,51,0.00,SCT,,0.00,WeatherDisplay:10.37,2013-08-28 20:16:00,
2013-08-28 16:21:00,68.5,49.7,29.83,NNW,330,0.0,0.0,51,0.00,SCT,,0.00,WeatherDisplay:10.37,2013-08-28 20:21:00,
2013-08-28 16:26:00,68.5,49.7,29.83,NNW,330,0.0,0.0,51,0.00,SCT,,0.00,WeatherDisplay:10.37,2013-08-28 20:26:00,
2013-08-28 16:31:00,68.5,49.7,29.83,NNW,330,0.0,0.0,51,0.00,SCT,,0.00,WeatherDisplay:10.37,2013-08-28 20:31:00,
2013-08-28 16:36:00,68.5,49.7,29.89,NNW,330,0.0,0.0,51,0.00,SCT,,0.00,WeatherDisplay:10.37,2013-08-28 20:36:00,
2013-08-28 16:41:00,68.5,49.7,29.89,NNW,330,0.0,0.0,51,0.00,SCT,,0.00,WeatherDisplay:10.37,2013-08-28 20:41:00,
2013-08-28 16:46:00,68.5,49.7,29.89,NNW,330,0.0,0.0,51,0.00,SCT,,0.00,WeatherDisplay:10.37,2013-08-28 20:46:00,
2013-08-28 16:51:00,68.5,49.7,29.86,NNW,330,0.0,0.0,51,0.00,SCT,,0.00,WeatherDisplay:10.37,2013-08-28 20:51:00,
2013-08-28 16:56:00,68.5,49.7,29.86,NNW,330,0.0,0.0,51,0.00,SCT,,0.00,WeatherDisplay:10.37,2013-08-28 20:56:00,
2013-08-28 17:01:00,68.5,48.6,29.86,NW,320,4.6,0.0,49,0.00,BKN,,0.00,WeatherDisplay:10.37,2013-08-28 21:01:00,
2013-08-28 17:06:00,68.5,48.6,29.86,NW,320,4.6,4.6,49,0.00,BKN,,0.00,WeatherDisplay:10.37,2013-08-28 21:06:00,
2013-08-28 17:11:00,68.5,48.6,29.86,NW,320,4.6,4.6,49,0.00,BKN,,0.00,WeatherDisplay:10.37,2013-08-28 21:11:00,
2013-08-28 17:16:00,68.5,48.6,29.86,NW,320,4.6,4.6,49,0.00,BKN,,0.00,WeatherDisplay:10.37,2013-08-28 21:16:00,
2013-08-28 17:21:00,68.5,48.6,29.86,NW,320,4.6,4.6,49,0.00,BKN,,0.00,WeatherDisplay:10.37,2013-08-28 21:21:00,
2013-08-28 17:26:00,68.5,48.6,29.86,NW,320,4.6,4.6,49,0.00,BKN,,0.00,WeatherDisplay:10.37,2013-08-28 21:26:00,
2013-08-28 17:31:00,68.5,48.6,29.86,NW,320,4.6,4.6,49,0.00,BKN,,0.00,WeatherDisplay:10.37,2013-08-28 21:31:00,
2013-08-28 17:36:00,68.5,48.6,29.83,NW,320,4.6,4.6,49,0.00,BKN,,0.00,WeatherDisplay:10.37,2013-08-28 21:36:00,
2013-08-28 17:41:00,68.5,48.6,29.83,NW,320,4.6,4.6,49,0.00,BKN,,0.00,WeatherDisplay:10.37,2013-08-28 21:41:00,
2013-08-28 17:46:00,68.5,48.6,29.83,NW,320,4.6,4.6,49,0.00,BKN,,0.00,WeatherDisplay:10.37,2013-08-28 21:46:00,
2013-08-28 17:51:00,68.5,48.6,29.83,NW,320,4.6,4.6,49,0.00,BKN,,0.00,WeatherDisplay:10.37,2013-08-28 21:51:00,
2013-08-28 17:56:00,68.5,48.6,29.83,NW,320,4.6,4.6,49,0.00,BKN,,0.00,WeatherDisplay:10.37,2013-08-28 21:56:00,
2013-08-28 18:01:00,68.5,48.6,29.83,NNE,20,5.8,5.8,49,0.00,BKN,,0.00,WeatherDisplay:10.37,2013-08-28 22:01:00,
2013-08-28 18:06:00,68.5,48.6,29.86,NNE,20,5.8,5.8,49,0.00,BKN,,0.00,WeatherDisplay:10.37,2013-08-28 22:06:00,
2013-08-28 18:11:00,68.5,48.6,29.86,NNE,20,5.8,5.8,49,0.00,BKN,,0.00,WeatherDisplay:10.37,2013-08-28 22:11:00,
2013-08-28 18:16:00,68.5,48.6,29.86,NNE,20,5.8,5.8,49,0.00,BKN,,0.00,WeatherDisplay:10.37,2013-08-28 22:16:00,
2013-08-28 18:21:00,68.5,48.6,29.86,NNE,20,5.8,5.8,49,0.00,BKN,,0.00,WeatherDisplay:10.37,2013-08-28 22:21:00,
2013-08-28 18:26:00,68.5,48.6,29.86,NNE,20,5.8,5.8,49,0.00,BKN,,0.00,WeatherDisplay:10.37,2013-08-28 22:26:00,
2013-08-28 18:31:00,68.5,48.6,29.86,NNE,20,5.8,5.8,49,0.00,BKN,,0.00,WeatherDisplay:10.37,2013-08-28 22:31:00,
2013-08-28 18:36:00,68.5,48.6,29.86,NNE,20,5.8,5.8,49,0.00,BKN,,0.00,WeatherDisplay:10.37,2013-08-28 22:36:00,
2013-08-28 18:41:00,68.5,48.6,29.86,NNE,20,5.8,5.8,49,0.00,BKN,,0.00,WeatherDisplay:10.37,2013-08-28 22:41:00,
2013-08-28 18:46:00,68.5,48.6,29.86,NNE,20,5.8,5.8,49,0.00,BKN,,0.00,WeatherDisplay:10.37,2013-08-28 22:46:00,
2013-08-28 18:51:00,68.5,48.6,29.83,NNE,20,5.8,5.8,49,0.00,BKN,,0.00,WeatherDisplay:10.37,2013-08-28 22:51:00,
2013-08-28 18:56:00,68.5,48.6,29.83,NNE,20,5.8,5.8,49,0.00,BKN,,0.00,WeatherDisplay:10.37,2013-08-28 22:56:00,
2013-08-28 19:01:00,68.5,53.2,29.83,NNE,30,3.5,5.8,58,0.00,BKN,,0.00,WeatherDisplay:10.37,2013-08-28 23:01:00,
2013-08-28 19:06:00,68.5,53.2,29.86,NNE,30,3.5,3.5,58,0.00,BKN,,0.00,WeatherDisplay:10.37,2013-08-28 23:06:00,
2013-08-28 19:11:00,68.5,53.2,29.86,NNE,30,3.5,3.5,58,0.00,BKN,,0.00,WeatherDisplay:10.37,2013-08-28 23:11:00,
2013-08-28 19:16:00,68.5,53.2,29.86,NNE,30,3.5,3.5,58,0.00,BKN,,0.00,WeatherDisplay:10.37,2013-08-28 23:16:00,
2013-08-28 19:21:00,68.5,53.2,29.86,NNE,30,3.5,3.5,58,0.00,BKN,,0.00,WeatherDisplay:10.37,2013-08-28 23:21:00,
2013-08-28 19:26:00,68.5,53.2,29.86,NNE,30,3.5,3.5,58,0.00,BKN,,0.00,WeatherDisplay:10.37,2013-08-28 23:26:00,
2013-08-28 19:31:00,68.5,53.2,29.86,NNE,30,3.5,3.5,58,0.00,BKN,,0.00,WeatherDisplay:10.37,2013-08-28 23:31:00,
2013-08-28 19:36:00,68.5,53.2,29.86,NNE,30,3.5,3.5,58,0.00,BKN,,0.00,WeatherDisplay:10.37,2013-08-28 23:36:00,
2013-08-28 19:41:00,68.5,53.2,29.86,NNE,30,3.5,3.5,58,0.00,BKN,,0.00,WeatherDisplay:10.37,2013-08-28 23:41:00,
2013-08-28 19:46:00,68.5,53.2,29.86,NNE,30,3.5,3.5,58,0.00,BKN,,0.00,WeatherDisplay:10.37,2013-08-28 23:46:00,
2013-08-28 19:51:00,68.5,53.2,29.89,NNE,30,3.5,3.5,58,0.00,BKN,,0.00,WeatherDisplay:10.37,2013-08-28 23:51:00,
2013-08-28 19:56:00,68.5,53.2,29.89,NNE,30,3.5,3.5,58,0.00,BKN,,0.00,WeatherDisplay:10.37,2013-08-28 23:56:00,
2013-08-28 20:01:00,68.5,58.8,29.89,South,170,8.1,8.1,71,0.00,BKN,,0.00,WeatherDisplay:10.37,2013-08-29 00:01:00,
2013-08-28 20:06:00,68.5,58.8,29.86,South,170,8.1,8.1,71,0.00,BKN,,0.00,WeatherDisplay:10.37,2013-08-29 00:06:00,
2013-08-28 20:11:00,68.5,58.8,29.86,South,170,8.1,8.1,71,0.00,BKN,,0.00,WeatherDisplay:10.37,2013-08-29 00:11:00,
2013-08-28 20:16:00,68.5,58.8,29.86,South,170,8.1,8.1,71,0.00,BKN,,0.00,WeatherDisplay:10.37,2013-08-29 00:16:00,
2013-08-28 20:21:00,68.5,58.8,29.89,South,170,8.1,8.1,71,0.00,BKN,,0.00,WeatherDisplay:10.37,2013-08-29 00:21:00,
2013-08-28 20:26:00,68.5,58.8,29.89,South,170,8.1,8.1,71,0.00,BKN,,0.00,WeatherDisplay:10.37,2013-08-29 00:26:00,
2013-08-28 20:31:00,68.5,58.8,29.89,South,170,8.1,8.1,71,0.00,BKN,,0.00,WeatherDisplay:10.37,2013-08-29 00:31:00,
2013-08-28 20:36:00,68.5,58.8,29.89,South,170,8.1,8.1,71,0.00,BKN,,0.00,WeatherDisplay:10.37,2013-08-29 00:36:00,
2013-08-28 20:41:00,68.5,58.8,29.89,South,170,8.1,8.1,71,0.00,BKN,,0.00,WeatherDisplay:10.37,2013-08-29 00:41:00,
2013-08-28 20:46:00,68.5,58.8,29.89,South,170,8.1,8.1,71,0.00,BKN,,0.00,WeatherDisplay:10.37,2013-08-29 00:46:00,
2013-08-28 20:51:00,68.5,58.8,29.89,South,170,8.1,8.1,71,0.00,BKN,,0.00,WeatherDisplay:10.37,2013-08-29 00:51:00,
2013-08-28 20:56:00,68.5,58.8,29.89,South,170,8.1,8.1,71,0.00,BKN,,0.00,WeatherDisplay:10.37,2013-08-29 00:56:00,
2013-08-28 21:01:00,68.5,58.8,29.89,South,170,8.1,8.1,71,0.00,BKN,,0.00,WeatherDisplay:10.37,2013-08-29 01:01:00,
2013-08-28 21:06:00,68.5,58.8,29.92,South,170,8.1,8.1,71,0.00,BKN,,0.00,WeatherDisplay:10.37,2013-08-29 01:06:00,
2013-08-28 21:11:00,68.5,58.8,29.92,South,170,8.1,8.1,71,0.00,BKN,,0.00,WeatherDisplay:10.37,2013-08-29 01:11:00,
2013-08-28 21:16:00,68.5,60.3,29.92,South,170,0.0,8.1,75,0.00,BKN,,0.00,WeatherDisplay:10.37,2013-08-29 01:16:00,
2013-08-28 21:21:00,68.5,60.3,29.92,South,170,0.0,0.0,75,0.00,BKN,,0.00,WeatherDisplay:10.37,2013-08-29 01:21:00,
2013-08-28 21:26:00,68.5,60.3,29.92,South,170,0.0,0.0,75,0.00,BKN,,0.00,WeatherDisplay:10.37,2013-08-29 01:26:00,
2013-08-28 21:31:00,68.5,60.3,29.92,South,170,0.0,0.0,75,0.00,BKN,,0.00,WeatherDisplay:10.37,2013-08-29 01:31:00,
2013-08-28 21:36:00,68.5,60.3,29.92,South,170,0.0,0.0,75,0.00,BKN,,0.00,WeatherDisplay:10.37,2013-08-29 01:36:00,
2013-08-28 21:41:00,68.5,60.3,29.92,South,170,0.0,0.0,75,0.00,BKN,,0.00,WeatherDisplay:10.37,2013-08-29 01:41:00,
2013-08-28 21:46:00,68.5,60.3,29.92,South,170,0.0,0.0,75,0.00,BKN,,0.00,WeatherDisplay:10.37,2013-08-29 01:46:00,
2013-08-28 21:51:00,68.5,60.3,29.92,South,170,0.0,0.0,75,0.00,BKN,,0.00,WeatherDisplay:10.37,2013-08-29 01:51:00,
2013-08-28 21:56:00,68.5,60.3,29.92,South,170,0.0,0.0,75,0.00,BKN,,0.00,WeatherDisplay:10.37,2013-08-29 01:56:00,
2013-08-28 22:01:00,68.5,60.3,29.92,South,170,0.0,0.0,75,0.00,BKN,,0.00,WeatherDisplay:10.37,2013-08-29 02:01:00,
2013-08-28 22:06:00,68.5,60.3,29.92,South,170,0.0,0.0,75,0.00,BKN,,0.00,WeatherDisplay:10.37,2013-08-29 02:06:00,
2013-08-28 22:11:00,68.5,60.3,29.92,South,170,0.0,0.0,75,0.00,BKN,,0.00,WeatherDisplay:10.37,2013-08-29 02:11:00,
2013-08-28 22:16:00,68.5,60.7,29.92,WSW,240,4.6,0.0,76,0.00,SCT,,0.00,WeatherDisplay:10.37,2013-08-29 02:16:00,
2013-08-28 22:21:00,68.5,60.7,29.92,WSW,240,4.6,4.6,76,0.00,SCT,,0.00,WeatherDisplay:10.37,2013-08-29 02:21:00,
2013-08-28 22:26:00,68.5,60.7,29.92,WSW,240,4.6,4.6,76,0.00,SCT,,0.00,WeatherDisplay:10.37,2013-08-29 02:26:00,
2013-08-28 22:31:00,68.5,60.7,29.92,WSW,240,4.6,4.6,76,0.00,SCT,,0.00,WeatherDisplay:10.37,2013-08-29 02:31:00,
2013-08-28 22:36:00,68.5,60.7,29.92,WSW,240,4.6,4.6,76,0.00,SCT,,0.00,WeatherDisplay:10.37,2013-08-29 02:36:00,
2013-08-28 22:41:00,68.5,60.7,29.92,WSW,240,4.6,4.6,76,0.00,SCT,,0.00,WeatherDisplay:10.37,2013-08-29 02:41:00,
2013-08-28 22:46:00,68.5,60.7,29.92,WSW,240,4.6,4.6,76,0.00,SCT,,0.00,WeatherDisplay:10.37,2013-08-29 02:46:00,
2013-08-28 22:51:00,68.5,60.7,29.92,WSW,240,4.6,4.6,76,0.00,SCT,,0.00,WeatherDisplay:10.37,2013-08-29 02:51:00,
2013-08-28 22:56:00,68.5,60.7,29.92,WSW,240,4.6,4.6,76,0.00,SCT,,0.00,WeatherDisplay:10.37,2013-08-29 02:56:00,
2013-08-28 23:01:00,68.5,60.7,29.92,WSW,240,4.6,4.6,76,0.00,SCT,,0.00,WeatherDisplay:10.37,2013-08-29 03:01:00,
2013-08-28 23:06:00,68.5,60.7,29.95,WSW,240,4.6,4.6,76,0.00,SCT,,0.00,WeatherDisplay:10.37,2013-08-29 03:06:00,
2013-08-28 23:11:00,68.5,60.7,29.95,WSW,240,4.6,4.6,76,0.00,SCT,,0.00,WeatherDisplay:10.37,2013-08-29 03:11:00,
2013-08-28 23:16:00,68.5,62.5,29.95,WSW,240,0.0,4.6,81,0.00,SCT,,0.00,WeatherDisplay:10.37,2013-08-29 03:16:00,
2013-08-28 23:21:00,68.5,62.5,29.95,WSW,240,0.0,0.0,81,0.00,SCT,,0.00,WeatherDisplay:10.37,2013-08-29 03:21:00,
2013-08-28 23:26:00,68.5,62.5,29.95,WSW,240,0.0,0.0,81,0.00,SCT,,0.00,WeatherDisplay:10.37,2013-08-29 03:26:00,
2013-08-28 23:31:00,68.5,62.5,29.95,WSW,240,0.0,0.0,81,0.00,SCT,,0.00,WeatherDisplay:10.37,2013-08-29 03:31:00,
2013-08-28 23:36:00,68.5,62.5,29.95,WSW,240,0.0,0.0,81,0.00,SCT,,0.00,WeatherDisplay:10.37,2013-08-29 03:36:00,
2013-08-28 23:41:00,70.2,64.1,29.95,WSW,240,0.0,0.0,81,0.00,SCT,,0.00,WeatherDisplay:10.37,2013-08-29 03:41:00,
2013-08-28 23:46:00,70.2,64.1,29.95,WSW,240,0.0,0.0,81,0.00,SCT,,0.00,WeatherDisplay:10.37,2013-08-29 03:46:00,
2013-08-28 23:51:00,70.2,64.1,30.06,WSW,240,0.0,0.0,81,0.00,SCT,,0.00,WeatherDisplay:10.37,2013-08-29 03:51:00,
2013-08-28 23:56:00,70.0,63.9,30.06,WSW,240,0.0,0.0,81,0.00,SCT,,0.00,WeatherDisplay:10.37,2013-08-29 03:56:00,